User: anonymous   Login
Location: Al Mulaqqa?ah
(24.1833°N, 32.8833°E)
Time: 13:57:00
(UTC+00:00)
Language:

H-2A R/B - Orbit

View from above orbital plane
View from above orbital plane
View from above satellite
View from above satellite

Ground track
Ground track

The orbit data is extracted from the following two-line orbital elements,

1 27601U 02056E   21330.81130667 -.00000019  00000-0  74776-5 0  9997
2 27601  98.1824 343.9647 0072836 145.0253  27.8244 14.32023919990168
Epoch (UTC): 26 November 2021 19:28:16
Eccentricity: 0.0072836
inclination: 98.1824°
perigee height: 733 km
apogee height: 837 km
right ascension of ascending node: 343.9647°
argument of perigee: 145.0253°
revolutions per day: 14.32023919
mean anomaly at epoch: 27.8244°
orbit number at epoch: 99016

The dashed part of the orbit path shows where the satellite is in the earth's shadow,  

DLR